Location: LDNL
(36.4545°S, 141.6685°E)
Time: 11:18:40
(UTC+10:00)

Explorer 7 - Pass Details

Date: 17 August 2022
Orbit: 482 x 668 km, 50.3° (Epoch: 26 September)

Event Time Altitude Azimuth Distance (km) Brightness Sun altitude
Rises 00:31:54 0° 239° (WSW) 2,876 - -67.1°
Reaches altitude 10° 00:34:26 10° 249° (WSW) 1,931 - -67.1°
Maximum altitude 00:38:22 32° 312° (NW) 985 - -67.2°
Drops below altitude 10° 00:42:03 10° 15° (NNE) 1,805 - -67.1°
Sets 00:44:22 0° 25° (NNE) 2,657 - -67.1°
